Terminal Aerodrome Forecast
Issued by NWS Upton, NY

Home | Current Version | Previous Version | Text Only | Print | Product List | Glossary On
Versions: 1 2 3 4 5 6 7 8 9 10 11 12 13 14 15 16 17 18 19 20 21 22 23 24 25 26 27 28 29 30 31 32 33 34 35 36 37 38 39 40 41 42 43 44 45 46 47 48 49 50
000
FTUS41 KOKX 211434 AAB
TAFISP
TAF AMD
KISP 211434Z 2115/2212 15009KT P6SM SCT005 BKN050
      TEMPO 2115/2116 -SHRA BKN005
     FM211600 17008KT P6SM FEW010 BKN050
     FM211900 16011KT P6SM SCT080 BKN250
     FM220200 VRB05KT P6SM BKN080=

USA.gov is the U.S. government's official web portal to all federal, state and local government web resources and services.